GW6793 Weather Reports


Display with metric or nautical units.
time (UTC)temp
F
wind
direction
speed
MPH
gust
MPH
rain 1hr
in
rain 24hr
in
rain mn
in
humidity
%
barometer
mb
20260510033503 72 24 0.0 1.0 0.00 0.02 0.02 83 1010.2
20260510033003 72 24 0.0 2.0 0.00 0.02 0.02 83 1010.2
20260510032504 72 24 0.0 2.0 0.00 0.02 0.02 82 1010.1
20260510032003 72 24 0.0 1.0 0.00 0.02 0.02 82 1010.0
20260510031004 72 24 0.0 1.0 0.00 0.02 0.02 81 1009.9
20260510030504 72 24 0.0 1.0 0.00 0.02 0.02 81 1009.9
20260510030003 72 24 0.0 0.0 0.00 0.02 0.02 81 1009.8
20260510025503 72 24 0.0 1.0 0.00 0.02 0.02 81 1009.8
20260510024004 72 5 0.0 2.0 0.00 0.02 0.02 82 1009.8
20260510023004 72 5 0.0 1.0 0.00 0.02 0.02 81 1009.5
20260510022003 73 5 0.0 0.0 0.00 0.02 0.02 81 1009.4
20260510021504 73 5 0.0 1.0 0.00 0.02 0.02 80 1009.4
20260510021003 73 5 0.0 1.0 0.00 0.02 0.02 80 1009.3
20260510020504 73 5 0.0 1.0 0.00 0.02 0.02 80 1009.2
20260510020002 73 5 0.0 1.0 0.00 0.02 0.02 79 1009.1
20260510015502 73 5 0.0 1.0 0.00 0.02 0.02 78 1008.9
20260510015002 74 5 0.0 1.0 0.00 0.02 0.02 78 1008.8
20260510014502 74 5 0.0 1.0 0.00 0.02 0.02 78 1008.7
20260510013503 75 5 0.0 0.0 0.00 0.02 0.02 75 1008.4
20260510013003 76 5 0.0 1.0 0.00 0.02 0.02 75 1008.2
20260510012502 76 5 0.0 2.0 0.00 0.02 0.02 74 1008.2
20260510012002 76 5 1.0 3.0 0.00 0.02 0.02 73 1008.1
20260510011502 77 5 1.0 3.0 0.00 0.02 0.02 72 1008.2
20260510011003 77 5 0.0 2.0 0.00 0.02 0.02 73 1008.2
20260510010503 77 5 0.0 2.0 0.00 0.02 0.02 72 1008.2
20260510010005 78 5 0.0 1.0 0.00 0.02 0.02 71 1008.1
20260510005503 78 5 0.0 1.0 0.00 0.02 0.02 71 1008.0
20260510005003 79 5 0.0 1.0 0.00 0.02 0.02 70 1008.2
20260510004503 79 5 0.0 1.0 0.00 0.02 0.02 70 1008.2
20260510004003 79 5 0.0 1.0 0.00 0.02 0.02 70 1008.1
20260510003503 79 5 0.0 2.0 0.00 0.02 0.02 69 1008.1
20260510002504 78 10 0.0 1.0 0.00 0.02 0.02 70 1008.3
20260510002003 79 10 0.0 1.0 0.00 0.02 0.02 70 1008.2
20260510001503 79 10 0.0 1.0 0.00 0.02 0.02 69 1008.1
20260510000004 79 5 0.0 0.0 0.00 0.02 0.02 65 1008.3
20260509235503 80 5 0.0 3.0 0.00 0.02 0.02 64 1008.5
20260509235002 80 5 1.0 5.0 0.00 0.02 0.02 63 1008.1
20260509234502 80 355 1.0 5.0 0.00 0.02 0.02 63 1008.1
20260509234003 80 5 0.0 2.0 0.00 0.02 0.02 66 1008.0
20260509233502 81 9 1.0 3.0 0.00 0.02 0.02 66 1007.8
20260509233004 81 9 1.0 3.0 0.00 0.02 0.02 63 1008.0
20260509232502 81 355 1.0 3.0 0.00 0.02 0.02 63 1008.0
20260509232001 82 5 2.0 5.0 0.00 0.02 0.02 62 1008.0
20260509230002 87 331 2.0 10.0 0.00 0.02 0.02 57 1008.3
20260509225502 89 337 0.0 10.0 0.00 0.02 0.02 52 1008.0
20260509224001 88 327 0.0 1.0 0.00 0.02 0.02 55 1007.7
20260509223501 88 327 0.0 1.0 0.00 0.02 0.02 55 1007.6
20260509223001 88 321 0.0 1.0 0.00 0.02 0.02 56 1007.5
20260509222501 88 321 0.0 2.0 0.00 0.02 0.02 57 1007.4
20260509222001 88 311 0.0 3.0 0.00 0.02 0.02 55 1007.3
20260509221501 88 307 0.0 3.0 0.00 0.02 0.02 54 1007.2
20260509221001 88 239 1.0 5.0 0.00 0.02 0.02 53 1007.1
20260509220501 89 239 2.0 8.0 0.00 0.02 0.02 54 1007.0
20260509220002 89 215 1.0 8.0 0.00 0.02 0.02 55 1007.0
20260509215501 88 317 0.0 2.0 0.00 0.02 0.02 53 1007.0
20260509214501 89 342 1.0 4.0 0.00 0.02 0.02 54 1007.4
20260509214001 89 192 0.0 3.0 0.00 0.02 0.02 52 1007.4
20260509213501 89 117 1.0 3.0 0.00 0.02 0.02 52 1007.5
20260509212501 89 213 1.0 4.0 0.00 0.02 0.02 53 1007.5
20260509212002 89 239 1.0 3.0 0.00 0.02 0.02 55 1007.5
20260509211502 89 309 1.0 3.0 0.00 0.02 0.02 53 1007.5
20260509211000 89 270 0.0 4.0 0.00 0.02 0.02 54 1007.7
20260509210501 89 213 0.0 4.0 0.00 0.02 0.02 54 1007.7
20260509210002 89 349 1.0 3.0 0.00 0.02 0.02 56 1007.8
20260509205502 89 348 1.0 3.0 0.00 0.02 0.02 55 1007.9
20260509205001 89 329 1.0 5.0 0.00 0.02 0.02 55 1008.0
20260509204502 89 5 1.0 5.0 0.00 0.02 0.02 56 1008.0
20260509204002 89 203 1.0 4.0 0.00 0.02 0.02 53 1008.2
20260509203501 89 240 1.0 4.0 0.00 0.02 0.02 56 1008.3
20260509203002 89 342 1.0 3.0 0.00 0.02 0.02 57 1008.3
20260509202501 88 360 1.0 3.0 0.00 0.02 0.02 57 1008.3
20260509202002 89 71 1.0 6.0 0.00 0.02 0.02 57 1008.3
20260509201503 88 57 2.0 6.0 0.00 0.02 0.02 61 1008.4
20260509201002 88 13 1.0 4.0 0.00 0.02 0.02 58 1008.4
20260509200501 88 348 1.0 4.0 0.00 0.02 0.02 60 1008.4
20260509200003 89 342 2.0 4.0 0.00 0.02 0.02 57 1008.5
20260509195502 89 350 1.0 4.0 0.00 0.02 0.02 56 1008.6
20260509195002 89 282 1.0 4.0 0.00 0.02 0.02 55 1008.6
20260509194502 89 84 1.0 5.0 0.00 0.02 0.02 57 1008.6
20260509194001 88 169 2.0 5.0 0.00 0.02 0.02 60 1008.5
20260509193502 88 206 1.0 5.0 0.00 0.02 0.02 60 1008.6
20260509193001 88 316 1.0 3.0 0.00 0.02 0.02 58 1008.8
20260509192501 88 240 1.0 5.0 0.00 0.02 0.02 64 1008.8
20260509192002 87 308 2.0 5.0 0.00 0.02 0.02 64 1008.8
20260509191501 87 267 2.0 5.0 0.00 0.02 0.02 67 1008.9
20260509191003 87 5 2.0 5.0 0.00 0.02 0.02 65 1009.0
20260509190502 86 255 1.0 4.0 0.00 0.02 0.02 66 1009.0
20260509190003 86 336 1.0 4.0 0.00 0.02 0.02 66 1009.1
20260509185500 86 9 2.0 3.0 0.00 0.02 0.02 65 1009.1
20260509185000 86 283 2.0 4.0 0.00 0.02 0.02 68 1009.2
20260509184001 86 310 1.0 3.0 0.00 0.02 0.02 65 1009.3
20260509183500 86 290 1.0 5.0 0.00 0.02 0.02 65 1009.4
20260509183000 86 246 1.0 5.0 0.00 0.02 0.02 65 1009.4
20260509181501 86 202 3.0 6.0 0.00 0.02 0.02 67 1009.7
20260509181002 86 221 2.0 6.0 0.00 0.02 0.02 68 1009.8
20260509180001 85 221 2.0 6.0 0.00 0.02 0.02 69 1010.0
20260509175500 85 255 1.0 4.0 0.00 0.02 0.02 67 1010.1
20260509175002 84 282 1.0 3.0 0.00 0.02 0.02 69 1010.2
20260509174501 84 284 1.0 3.0 0.00 0.02 0.02 72 1010.2
20260509174001 84 296 0.0 2.0 0.00 0.02 0.02 75 1010.2
20260509173500 83 296 1.0 4.0 0.00 0.02 0.02 76 1010.2
20260509173001 83 296 1.0 4.0 0.00 0.02 0.02 75 1010.3
20260509172500 83 308 1.0 5.0 0.00 0.02 0.02 77 1010.5
20260509172000 83 5 1.0 5.0 0.00 0.02 0.02 77 1010.5
20260509171500 82 276 1.0 4.0 0.00 0.02 0.02 80 1010.5
20260509170501 82 197 1.0 3.0 0.00 0.02 0.02 80 1010.5
20260509170003 82 192 1.0 3.0 0.00 0.02 0.02 84 1010.4
20260509165502 81 101 1.0 6.0 0.00 0.02 0.02 86 1010.5
20260509165000 80 98 2.0 6.0 0.00 0.02 0.02 85 1010.6
20260509164500 80 34 1.0 3.0 0.00 0.02 0.02 85 1010.5
20260509164000 80 304 1.0 2.0 0.00 0.02 0.02 85 1010.5
20260509162459 80 304 1.0 3.0 0.00 0.02 0.02 82 1010.5
20260509162001 80 302 1.0 3.0 0.00 0.02 0.02 83 1010.4
20260509161500 80 297 1.0 3.0 0.00 0.02 0.02 82 1010.4
20260509160501 81 242 1.0 2.0 0.00 0.02 0.02 84 1010.1
20260509160002 80 242 1.0 3.0 0.00 0.02 0.02 86 1010.1
20260509155003 79 242 1.0 4.0 0.00 0.02 0.02 87 1010.3
20260509154002 79 244 1.0 3.0 0.00 0.02 0.02 87 1010.3
20260509152500 78 244 1.0 4.0 0.00 0.02 0.02 90 1010.3
20260509152000 78 246 0.0 1.0 0.00 0.02 0.02 91 1010.3
20260509151500 78 246 0.0 1.0 0.00 0.02 0.02 92 1010.4
20260509151000 77 246 1.0 3.0 0.00 0.02 0.02 93 1010.3
20260509150500 77 246 1.0 4.0 0.00 0.02 0.02 94 1010.3
20260509150002 77 246 1.0 4.0 0.00 0.02 0.02 95 1010.2
20260509145458 77 329 1.0 3.0 0.00 0.02 0.02 96 1010.2
20260509144958 76 360 0.0 3.0 0.00 0.02 0.02 96 1010.1
20260509144500 76 360 0.0 2.0 0.00 0.02 0.02 96 1009.8
20260509143459 75 360 1.0 3.0 0.00 0.02 0.02 97 1009.7
20260509143001 75 360 1.0 3.0 0.00 0.02 0.02 97 1009.7
20260509142459 75 360 0.0 2.0 0.00 0.02 0.02 97 1009.7
20260509142000 75 360 0.0 1.0 0.00 0.02 0.02 97 1009.4
20260509141501 74 360 0.0 1.0 0.00 0.02 0.02 96 1009.4
20260509140959 74 360 1.0 1.0 0.00 0.02 0.02 97 1009.4
20260509140459 74 360 2.0 4.0 0.00 0.02 0.02 97 1009.4
20260509135459 74 43 2.0 4.0 0.01 0.02 0.02 97 1008.9
20260509134959 74 103 1.0 4.0 0.01 0.02 0.02 97 1008.7
20260509134459 74 153 0.0 2.0 0.02 0.02 0.02 96 1009.6
20260509133459 74 153 0.0 1.0 0.02 0.02 0.02 96 1009.8
20260509132959 74 153 0.0 1.0 0.02 0.02 0.02 96 1010.0
20260509132500 74 153 0.0 2.0 0.02 0.02 0.02 96 1010.0
20260509131959 74 153 0.0 2.0 0.02 0.02 0.02 96 1010.0
20260509131501 74 140 1.0 2.0 0.02 0.02 0.02 96 1010.0
20260509131000 74 140 1.0 2.0 0.02 0.02 0.02 96 1010.2
20260509130459 73 121 0.0 1.0 0.02 0.02 0.02 96 1010.5
20260509125959 73 121 0.0 1.0 0.02 0.02 0.02 96 1010.6
20260509125457 73 121 0.0 2.0 0.01 0.01 0.01 96 1010.6
20260509124959 73 121 0.0 2.0 0.01 0.01 0.01 96 1010.7
20260509124458 73 121 0.0 1.0 0.00 0.00 0.00 96 1010.7
20260509123958 73 121 0.0 1.0 0.00 0.00 0.00 96 1010.7
20260509123458 73 121 0.0 1.0 0.00 0.00 0.00 96 1010.6
20260509121958 73 121 0.0 1.0 0.00 0.00 0.00 96 1010.7
20260509121458 73 121 0.0 1.0 0.00 0.00 0.00 96 1010.6
20260509120959 73 121 0.0 1.0 0.00 0.00 0.00 96 1010.5
20260509120458 73 121 0.0 1.0 0.00 0.00 0.00 96 1010.5
20260509115959 73 121 0.0 1.0 0.00 0.00 0.00 96 1010.3
20260509114958 73 121 0.0 2.0 0.00 0.00 0.00 96 1010.0
20260509114459 73 121 0.0 3.0 0.00 0.00 0.00 96 1009.7
20260509113959 73 121 1.0 3.0 0.00 0.00 0.00 96 1009.4
20260509113459 73 132 0.0 2.0 0.00 0.00 0.00 96 1009.5
20260509112458 73 132 0.0 2.0 0.00 0.00 0.00 96 1010.0
20260509111959 73 132 1.0 3.0 0.00 0.00 0.00 96 1009.9
20260509111459 73 132 1.0 3.0 0.00 0.00 0.00 96 1010.0
20260509110959 73 79 0.0 2.0 0.00 0.00 0.00 96 1010.3
20260509110459 73 79 0.0 1.0 0.00 0.00 0.00 96 1010.4
20260509110001 73 79 0.0 1.0 0.00 0.00 0.00 96 1010.3
20260509105458 73 79 0.0 1.0 0.00 0.00 0.00 96 1010.0
20260509104458 73 79 0.0 1.0 0.00 0.00 0.00 96 1009.8
20260509103958 73 79 0.0 1.0 0.00 0.00 0.00 96 1009.6
20260509103459 73 79 0.0 0.0 0.00 0.00 0.00 96 1009.6
20260509102958 73 79 0.0 1.0 0.00 0.00 0.00 96 1009.6
20260509102458 73 79 0.0 1.0 0.00 0.00 0.00 96 1009.6
20260509101956 73 79 0.0 1.0 0.00 0.00 0.00 96 1009.6
20260509101457 73 79 0.0 1.0 0.00 0.00 0.00 96 1009.4
20260509100958 73 79 0.0 1.0 0.00 0.00 0.00 96 1009.4
20260509100458 73 79 1.0 2.0 0.00 0.00 0.00 96 1009.3
20260509095957 73 79 0.0 2.0 0.00 0.00 0.00 96 1009.5
20260509094958 73 79 0.0 0.0 0.00 0.00 0.00 96 1009.8
20260509094457 73 79 0.0 1.0 0.00 0.00 0.00 96 1009.8
20260509093957 73 79 0.0 1.0 0.00 0.00 0.00 96 1009.5
20260509092957 73 79 0.0 1.0 0.00 0.00 0.00 96 1009.2
20260509092456 73 79 0.0 2.0 0.00 0.00 0.00 96 1009.1
20260509091957 73 79 0.0 2.0 0.00 0.00 0.00 95 1009.0
20260509090957 73 79 0.0 2.0 0.00 0.00 0.00 95 1009.1
20260509090000 73 79 1.0 4.0 0.00 0.00 0.00 95 1009.2
20260509085458 73 78 1.0 4.0 0.00 0.00 0.00 95 1008.9
20260509084958 73 98 1.0 3.0 0.00 0.00 0.00 95 1009.0
20260509083458 73 97 1.0 4.0 0.00 0.00 0.00 95 1009.4
20260509082458 73 148 1.0 3.0 0.00 0.00 0.00 95 1009.3
20260509081958 73 202 1.0 3.0 0.00 0.00 0.00 95 1009.3
20260509081458 73 196 1.0 3.0 0.00 0.00 0.00 95 1009.3
20260509080958 73 198 1.0 2.0 0.00 0.00 0.00 95 1009.5
20260509080457 73 195 1.0 3.0 0.00 0.00 0.00 95 1009.4
20260509075959 73 192 1.0 5.0 0.00 0.00 0.00 95 1009.3
20260509075456 73 205 1.0 5.0 0.00 0.00 0.00 95 1009.3
20260509074957 73 217 2.0 6.0 0.00 0.00 0.00 95 1009.5
20260509073957 73 208 1.0 6.0 0.00 0.00 0.00 94 1009.5
20260509073457 73 187 1.0 6.0 0.00 0.00 0.00 94 1009.3
20260509072958 73 165 1.0 3.0 0.00 0.00 0.00 94 1009.3
20260509072457 73 182 1.0 3.0 0.00 0.00 0.00 94 1009.3
20260509071957 73 147 1.0 4.0 0.00 0.00 0.00 93 1009.2
20260509071457 73 110 2.0 4.0 0.00 0.00 0.00 93 1009.4
20260509070957 73 166 1.0 4.0 0.00 0.00 0.00 93 1009.5
20260509070457 73 103 1.0 4.0 0.00 0.00 0.00 93 1009.4
20260509064456 73 217 1.0 6.0 0.00 0.00 0.00 92 1009.3
20260509063956 73 221 1.0 3.0 0.00 0.00 0.00 92 1009.3
20260509063456 73 222 1.0 3.0 0.00 0.00 0.00 92 1009.4
20260509062955 73 154 1.0 3.0 0.00 0.00 0.00 92 1009.5
20260509062456 73 124 1.0 2.0 0.00 0.00 0.00 91 1009.5
20260509061457 73 103 1.0 6.0 0.00 0.00 0.00 91 1009.5
20260509060956 73 136 0.0 2.0 0.00 0.00 0.00 91 1009.7
20260509060457 73 136 0.0 2.0 0.00 0.00 0.00 91 1009.9
20260509055504 73 136 0.0 2.0 0.00 0.00 0.00 91 1010.0
20260509055004 73 135 0.0 2.0 0.00 0.00 0.00 90 1010.0
20260509054504 73 109 0.0 2.0 0.00 0.00 0.00 90 1010.1
20260509054004 73 96 1.0 4.0 0.00 0.00 0.00 90 1010.2
20260509053004 73 128 1.0 4.0 0.00 0.00 0.00 90 1010.2
20260509052505 73 103 1.0 4.0 0.00 0.00 0.00 90 1010.2
20260509052004 73 106 1.0 4.0 0.00 0.00 0.00 90 1010.0
20260509051504 73 69 1.0 7.0 0.00 0.00 0.00 89 1009.9
20260509050504 73 197 1.0 6.0 0.00 0.00 0.00 89 1010.0
20260509050004 73 126 1.0 6.0 0.00 0.00 0.00 89 1010.0
20260509044505 73 96 1.0 4.0 0.00 0.00 0.00 89 1009.9
20260509044004 73 111 2.0 4.0 0.00 0.00 0.00 89 1009.9
20260509043504 73 118 2.0 6.0 0.00 0.00 0.00 89 1009.9
20260509042504 73 126 1.0 4.0 0.00 0.00 0.00 88 1009.7
20260509042004 73 127 2.0 4.0 0.00 0.00 0.00 89 1009.6
20260509041504 73 118 2.0 6.0 0.00 0.00 0.00 88 1009.6
20260509041006 73 97 2.0 6.0 0.00 0.00 0.00 88 1009.7
20260509040504 73 76 2.0 6.0 0.00 0.00 0.00 88 1009.6
20260509035506 73 108 1.0 6.0 0.00 0.00 0.00 88 1009.8
20260509034504 73 104 1.0 4.0 0.00 0.00 0.00 88 1009.8
20260509034004 73 104 1.0 4.0 0.00 0.00 0.00 88 1009.8